Tracking 22993 objects as of 12-May-2021
HD Live streaming from Space Station
objects crossing your sky now

OSCAR 14 (UOSAT 3)

Track OSCAR 14 (UOSAT 3) now!
10-day predictions
OSCAR 14 (UOSAT 3) is classified as:


NORAD ID: 20437
Int'l Code: 1990-005B
Perigee: 783.9 km
Apogee: 798.0 km
Inclination: 98.9 °
Period: 100.5 minutes
Semi major axis: 7161 km
RCS: 0.3858 m2 (medium)
Launch date: January 22, 1990
Source: United Kingdom (UK)
Launch site: FRENCH GUIANA (FRGUI)

Uplink (MHz): 145.975
Downlink (MHz): 435.070
Beacon (MHz):
Mode: FM
Call sign:
Status: Inactive

aabbcc
Your satellite tracking list
Your tracking list is empty




NASA's NSSDC Master Catalog

Two Line Element Set (TLE):
1 20437U 90005B   21131.56675927 -.00000016  00000-0  11173-4 0  9990
2 20437  98.8549 109.7843 0009902 321.0118 150.6396 14.32375102635102
Source of the keplerian elements: AFSPC